Total_Precipitation_Accumulation
1.32 1.29 1.26 1.23 1.24 1.29 1.30 1.25 1.16 1.05 0.94 0.91 0.82 0.77 0.74 0.77 0.82 0.87 0.90 0.94 0.98 1.03 1.10 1.14 1.16 1.14 1.20 1.26 1.28 1.34 1.47 1.57 1.60 1.44 1.27 1.19 1.14 1.04 1.00 1.00 0.97 0.91 0.83
1.08 0.99 0.99 0.96 0.95 0.99 1.03 0.95 0.90 0.87 0.78 0.71 0.62 0.60 0.59 0.62 0.65 0.68 0.72 0.76 0.86 0.89 0.91 0.95 0.97 0.97 1.01 1.03 1.06 1.08 1.18 1.30 1.37 1.38 1.29 1.21 1.16 1.08 1.01 1.02 0.85 0.72 0.72
0.94 0.88 0.86 0.84 0.84 0.86 0.87 0.84 0.78 0.76 0.72 0.64 0.56 0.54 0.53 0.51 0.52 0.53 0.56 0.58 0.66 0.74 0.78 0.82 0.84 0.85 0.84 0.80 0.85 0.92 1.00 1.08 1.23 1.26 1.19 1.11 1.02 0.97 1.01 0.93 0.85 0.91 0.69
0.85 0.80 0.78 0.76 0.75 0.75 0.77 0.80 0.74 0.65 0.58 0.56 0.53 0.50 0.48 0.45 0.46 0.45 0.42 0.45 0.51 0.56 0.59 0.64 0.68 0.72 0.74 0.75 0.76 0.87 0.94 1.07 1.16 1.17 1.12 1.04 0.98 0.92 1.02 1.03 0.98 0.94 0.77
0.83 0.79 0.75 0.70 0.66 0.64 0.66 0.67 0.66 0.61 0.52 0.49 0.47 0.46 0.41 0.35 0.31 0.31 0.34 0.40 0.48 0.49 0.52 0.51 0.52 0.57 0.67 0.68 0.68 0.76 0.87 1.01 1.04 1.04 1.05 1.01 0.95 0.98 1.00 0.95 0.97 0.94 0.82
0.89 0.88 0.81 0.75 0.67 0.65 0.63 0.63 0.61 0.55 0.50 0.47 0.45 0.42 0.37 0.29 0.27 0.26 0.28 0.37 0.47 0.50 0.49 0.47 0.44 0.42 0.47 0.54 0.56 0.62 0.75 0.86 0.93 0.99 0.99 0.99 0.96 1.01 1.04 1.01 1.03 1.04 0.99
0.84 0.81 0.79 0.74 0.69 0.65 0.57 0.53 0.55 0.57 0.53 0.48 0.45 0.44 0.45 0.39 0.25 0.21 0.23 0.33 0.48 0.48 0.48 0.52 0.46 0.42 0.48 0.54 0.55 0.52 0.57 0.61 0.70 0.87 0.98 1.01 1.06 1.15 1.24 1.20 1.17 1.15 1.13
0.74 0.70 0.65 0.62 0.63 0.64 0.57 0.54 0.56 0.57 0.55 0.51 0.48 0.49 0.53 0.42 0.27 0.19 0.22 0.32 0.43 0.39 0.42 0.49 0.56 0.57 0.49 0.49 0.52 0.56 0.60 0.62 0.64 0.69 0.87 0.95 0.96 1.05 1.17 1.21 1.21 1.16 1.12
0.70 0.67 0.59 0.53 0.58 0.61 0.58 0.57 0.61 0.59 0.58 0.56 0.54 0.57 0.59 0.47 0.31 0.24 0.27 0.35 0.41 0.42 0.44 0.42 0.43 0.48 0.45 0.49 0.55 0.69 0.72 0.76 0.62 0.67 0.77 0.83 0.86 0.91 0.97 1.07 1.21 1.31 1.27
0.68 0.63 0.57 0.55 0.58 0.61 0.64 0.63 0.58 0.57 0.54 0.49 0.53 0.60 0.59 0.51 0.35 0.28 0.30 0.34 0.42 0.51 0.55 0.53 0.48 0.45 0.43 0.46 0.57 0.73 0.82 0.82 0.84 1.00 1.11 1.11 1.04 1.02 0.98 1.08 1.27 1.35 1.34
0.57 0.56 0.59 0.60 0.56 0.54 0.57 0.59 0.57 0.50 0.52 0.51 0.51 0.55 0.57 0.44 0.33 0.29 0.34 0.39 0.43 0.47 0.54 0.60 0.56 0.48 0.44 0.45 0.51 0.65 0.77 0.78 0.95 1.29 1.33 1.21 1.10 1.08 1.03 1.02 1.14 1.25 1.33
0.62 0.62 0.59 0.55 0.45 0.43 0.53 0.56 0.52 0.50 0.53 0.55 0.57 0.59 0.55 0.42 0.31 0.27 0.29 0.33 0.34 0.42 0.55 0.55 0.53 0.49 0.45 0.48 0.51 0.63 0.73 0.85 1.09 1.37 1.34 1.16 1.03 0.98 0.95 0.88 0.94 1.04 1.14
0.65 0.61 0.55 0.48 0.42 0.42 0.48 0.50 0.48 0.47 0.45 0.44 0.46 0.51 0.47 0.39 0.34 0.27 0.28 0.29 0.30 0.36 0.47 0.49 0.48 0.47 0.50 0.61 0.64 0.70 0.82 1.02 1.18 1.28 1.21 1.03 0.90 0.87 0.83 0.82 0.80 0.89 0.94
0.67 0.58 0.50 0.44 0.38 0.36 0.38 0.36 0.37 0.37 0.38 0.37 0.37 0.39 0.37 0.33 0.27 0.23 0.25 0.27 0.28 0.31 0.39 0.49 0.58 0.63 0.70 0.83 0.92 0.99 1.02 1.04 1.04 1.06 0.99 0.89 0.79 0.77 0.77 0.71 0.74 0.79 0.90
0.65 0.53 0.45 0.38 0.32 0.31 0.27 0.22 0.21 0.23 0.23 0.26 0.24 0.22 0.23 0.23 0.17 0.18 0.21 0.24 0.26 0.28 0.34 0.49 0.70 0.82 0.90 0.94 0.97 1.02 1.01 0.93 0.89 0.84 0.81 0.80 0.79 0.78 0.74 0.64 0.66 0.70 0.80
0.50 0.43 0.35 0.29 0.28 0.23 0.22 0.20 0.15 0.13 0.14 0.16 0.17 0.16 0.13 0.14 0.14 0.14 0.16 0.18 0.21 0.26 0.33 0.55 0.73 0.81 0.86 0.89 0.91 0.89 0.84 0.80 0.75 0.73 0.73 0.69 0.66 0.67 0.69 0.65 0.64 0.70 0.77
0.38 0.33 0.27 0.23 0.22 0.20 0.23 0.30 0.31 0.22 0.15 0.16 0.16 0.16 0.14 0.13 0.11 0.11 0.11 0.13 0.16 0.24 0.36 0.56 0.68 0.73 0.80 0.86 0.82 0.78 0.77 0.72 0.65 0.62 0.62 0.60 0.54 0.55 0.61 0.65 0.65 0.70 0.72
0.29 0.23 0.23 0.24 0.20 0.20 0.21 0.23 0.28 0.34 0.34 0.26 0.16 0.14 0.12 0.12 0.11 0.10 0.11 0.14 0.23 0.30 0.45 0.58 0.64 0.66 0.70 0.72 0.70 0.69 0.69 0.64 0.60 0.58 0.58 0.57 0.55 0.52 0.56 0.62 0.63 0.63 0.66
0.27 0.25 0.24 0.24 0.21 0.19 0.18 0.17 0.19 0.24 0.30 0.30 0.24 0.16 0.13 0.16 0.18 0.19 0.19 0.22 0.30 0.35 0.42 0.47 0.54 0.59 0.63 0.63 0.62 0.58 0.57 0.57 0.55 0.54 0.54 0.53 0.54 0.53 0.53 0.52 0.52 0.46 0.50
0.26 0.23 0.22 0.22 0.20 0.18 0.15 0.15 0.17 0.22 0.26 0.26 0.23 0.18 0.19 0.27 0.31 0.29 0.25 0.24 0.26 0.29 0.34 0.41 0.47 0.49 0.51 0.51 0.49 0.45 0.44 0.45 0.45 0.44 0.45 0.48 0.50 0.49 0.49 0.47 0.45 0.44 0.45
0.24 0.22 0.20 0.19 0.17 0.15 0.14 0.13 0.16 0.21 0.21 0.22 0.19 0.18 0.24 0.30 0.35 0.34 0.32 0.30 0.29 0.30 0.32 0.36 0.39 0.40 0.36 0.35 0.36 0.35 0.34 0.34 0.36 0.39 0.40 0.40 0.38 0.35 0.32 0.29 0.27 0.28 0.32
0.22 0.19 0.16 0.16 0.14 0.13 0.15 0.16 0.16 0.17 0.17 0.18 0.16 0.16 0.21 0.24 0.28 0.28 0.30 0.31 0.31 0.31 0.32 0.36 0.36 0.34 0.32 0.32 0.36 0.35 0.31 0.29 0.29 0.33 0.35 0.33 0.30 0.26 0.24 0.22 0.20 0.20 0.24
0.18 0.15 0.13 0.13 0.14 0.15 0.17 0.18 0.18 0.18 0.19 0.18 0.15 0.15 0.18 0.21 0.22 0.25 0.28 0.28 0.26 0.27 0.28 0.30 0.32 0.33 0.32 0.31 0.32 0.29 0.27 0.27 0.27 0.29 0.34 0.33 0.28 0.23 0.22 0.21 0.19 0.19 0.21
0.14 0.11 0.12 0.12 0.15 0.19 0.19 0.16 0.16 0.17 0.17 0.16 0.14 0.14 0.17 0.18 0.20 0.23 0.27 0.28 0.28 0.28 0.27 0.27 0.29 0.30 0.29 0.30 0.29 0.24 0.20 0.21 0.21 0.24 0.30 0.29 0.23 0.20 0.22 0.22 0.20 0.20 0.21
0.11 0.12 0.11 0.11 0.13 0.17 0.17 0.15 0.15 0.15 0.14 0.13 0.12 0.14 0.16 0.14 0.14 0.16 0.21 0.25 0.27 0.27 0.26 0.23 0.22 0.20 0.20 0.18 0.17 0.16 0.18 0.18 0.16 0.17 0.23 0.26 0.22 0.20 0.21 0.21 0.21 0.21 0.22
0.10 0.12 0.12 0.13 0.15 0.17 0.18 0.16 0.15 0.14 0.14 0.13 0.12 0.12 0.12 0.12 0.12 0.13 0.15 0.19 0.21 0.22 0.23 0.23 0.21 0.18 0.14 0.11 0.12 0.15 0.16 0.13 0.12 0.12 0.16 0.22 0.22 0.20 0.20 0.21 0.20 0.21 0.23